TimeEST,TemperatureF,Dew PointF,Humidity,Sea Level PressureIn,VisibilityMPH,Wind Direction,Wind SpeedMPH,Gust SpeedMPH,PrecipitationIn,Events,Conditions,WindDirDegrees,DateUTC
12:55 AM,28.4,26.6,93,30.01,5.0,Calm,Calm,-,N/A,,Partly Cloudy,0,2013-02-06 05:55:00
1:15 AM,26.6,26.6,100,30.02,1.5,Calm,Calm,-,N/A,,Mostly Cloudy,0,2013-02-06 06:15:00
1:35 AM,26.6,26.6,100,30.02,1.8,Calm,Calm,-,N/A,,Clear,0,2013-02-06 06:35:00
2:15 AM,26.6,26.6,100,30.03,6.0,Calm,Calm,-,N/A,,Clear,0,2013-02-06 07:15:00
2:35 AM,26.6,26.6,100,30.03,4.0,Calm,Calm,-,N/A,,Clear,0,2013-02-06 07:35:00
2:55 AM,26.6,26.6,100,30.04,0.5,Calm,Calm,-,N/A,Fog,Light Freezing Fog,0,2013-02-06 07:55:00
3:35 AM,24.8,24.8,100,30.05,8.0,Calm,Calm,-,N/A,,Clear,0,2013-02-06 08:35:00
3:55 AM,24.8,24.8,100,30.06,0.5,Calm,Calm,-,N/A,Fog,Light Freezing Fog,0,2013-02-06 08:55:00
4:15 AM,24.8,24.8,100,30.06,0.2,Calm,Calm,-,N/A,Fog,Light Freezing Fog,0,2013-02-06 09:15:00
4:35 AM,24.8,24.8,100,30.06,0.2,Calm,Calm,-,N/A,Fog,Light Freezing Fog,0,2013-02-06 09:35:00
4:55 AM,24.8,24.8,100,30.08,0.8,Calm,Calm,-,N/A,,Mostly Cloudy,0,2013-02-06 09:55:00
5:15 AM,23.0,23.0,100,30.09,1.0,Calm,Calm,-,N/A,,Mostly Cloudy,0,2013-02-06 10:15:00
5:35 AM,23.0,23.0,100,30.09,1.0,Calm,Calm,-,N/A,,Mostly Cloudy,0,2013-02-06 10:35:00
5:55 AM,24.8,23.0,93,30.10,3.0,Calm,Calm,-,N/A,,Clear,0,2013-02-06 10:55:00
6:15 AM,23.0,21.2,93,30.11,10.0,Calm,Calm,-,N/A,,Clear,0,2013-02-06 11:15:00
6:35 AM,24.8,24.8,100,30.11,7.0,Calm,Calm,-,N/A,,Clear,0,2013-02-06 11:35:00
6:55 AM,23.0,21.2,93,30.11,9.0,Calm,Calm,-,N/A,,Clear,0,2013-02-06 11:55:00
7:15 AM,24.8,24.8,100,30.12,6.0,Calm,Calm,-,N/A,,Clear,0,2013-02-06 12:15:00
7:35 AM,23.0,23.0,100,30.14,9.0,Calm,Calm,-,N/A,,Clear,0,2013-02-06 12:35:00
7:55 AM,23.0,23.0,100,30.15,8.0,Calm,Calm,-,N/A,,Clear,0,2013-02-06 12:55:00
8:15 AM,24.8,24.8,100,30.15,8.0,Calm,Calm,-,N/A,,Clear,0,2013-02-06 13:15:00
8:35 AM,28.4,26.6,93,30.16,6.0,Calm,Calm,-,N/A,,Clear,0,2013-02-06 13:35:00
8:55 AM,30.2,28.4,93,30.17,6.0,Calm,Calm,-,N/A,,Clear,0,2013-02-06 13:55:00
9:15 AM,30.2,30.2,100,30.17,8.0,Calm,Calm,-,N/A,,Clear,0,2013-02-06 14:15:00
9:35 AM,33.8,30.2,87,30.18,10.0,Calm,Calm,-,N/A,,Clear,0,2013-02-06 14:35:00
9:55 AM,35.6,33.8,93,30.18,10.0,Calm,Calm,-,N/A,,Clear,0,2013-02-06 14:55:00
10:15 AM,39.2,33.8,81,30.18,10.0,Calm,Calm,-,N/A,,Clear,0,2013-02-06 15:15:00
10:35 AM,42.8,33.8,70,30.18,10.0,Variable,3.5,-,N/A,,Clear,0,2013-02-06 15:35:00
10:55 AM,46.4,32.0,57,30.19,10.0,West,6.9,-,N/A,,Partly Cloudy,260,2013-02-06 15:55:00
11:35 AM,46.4,28.4,50,30.19,10.0,Variable,5.8,-,N/A,,Clear,0,2013-02-06 16:35:00
11:55 AM,46.4,28.4,50,30.19,10.0,WNW,6.9,-,N/A,,Clear,290,2013-02-06 16:55:00
12:15 PM,48.2,28.4,46,30.19,10.0,Variable,5.8,-,N/A,,Clear,0,2013-02-06 17:15:00
12:35 PM,48.2,28.4,46,30.19,10.0,Variable,5.8,-,N/A,,Clear,0,2013-02-06 17:35:00
12:55 PM,48.2,28.4,46,30.18,10.0,West,6.9,-,N/A,,Clear,270,2013-02-06 17:55:00
1:15 PM,50.0,28.4,43,30.18,10.0,West,6.9,-,N/A,,Clear,280,2013-02-06 18:15:00
1:35 PM,50.0,28.4,43,30.17,10.0,NW,9.2,-,N/A,,Clear,320,2013-02-06 18:35:00
1:55 PM,50.0,28.4,43,30.17,10.0,WNW,9.2,-,N/A,,Clear,300,2013-02-06 18:55:00
2:15 PM,51.8,28.4,41,30.16,10.0,WNW,4.6,-,N/A,,Clear,300,2013-02-06 19:15:00
2:35 PM,51.8,26.6,38,30.16,10.0,Variable,5.8,-,N/A,,Clear,0,2013-02-06 19:35:00
2:55 PM,51.8,24.8,35,30.16,10.0,Variable,5.8,-,N/A,,Clear,0,2013-02-06 19:55:00
3:15 PM,51.8,24.8,35,30.16,10.0,West,6.9,-,N/A,,Clear,260,2013-02-06 20:15:00
3:35 PM,51.8,24.8,35,30.16,10.0,Variable,6.9,-,N/A,,Clear,0,2013-02-06 20:35:00
3:55 PM,53.6,24.8,33,30.16,10.0,SW,9.2,-,N/A,,Clear,230,2013-02-06 20:55:00
4:15 PM,51.8,23.0,33,30.16,10.0,West,3.5,-,N/A,,Clear,280,2013-02-06 21:15:00
4:35 PM,51.8,23.0,33,30.16,10.0,WNW,4.6,-,N/A,,Clear,300,2013-02-06 21:35:00
4:55 PM,51.8,24.8,35,30.17,10.0,SW,5.8,-,N/A,,Clear,230,2013-02-06 21:55:00
5:15 PM,51.8,24.8,35,30.17,10.0,WNW,3.5,-,N/A,,Clear,300,2013-02-06 22:15:00
5:55 PM,44.6,28.4,53,30.19,10.0,WNW,3.5,-,N/A,,Clear,290,2013-02-06 22:55:00
6:15 PM,39.2,28.4,65,30.18,10.0,Calm,Calm,-,N/A,,Clear,0,2013-02-06 23:15:00
6:35 PM,37.4,28.4,70,30.18,10.0,Calm,Calm,-,N/A,,Clear,0,2013-02-06 23:35:00
6:55 PM,35.6,28.4,75,30.20,10.0,Calm,Calm,-,N/A,,Clear,0,2013-02-06 23:55:00
7:15 PM,33.8,28.4,81,30.19,10.0,NNE,4.6,-,N/A,,Clear,30,2013-02-07 00:15:00
7:35 PM,33.8,28.4,81,30.19,10.0,Calm,Calm,-,N/A,,Clear,0,2013-02-07 00:35:00
7:55 PM,33.8,26.6,75,30.19,10.0,Calm,Calm,-,N/A,,Clear,0,2013-02-07 00:55:00
8:15 PM,33.8,26.6,75,30.18,10.0,Calm,Calm,-,N/A,,Clear,0,2013-02-07 01:15:00
8:35 PM,30.2,26.6,86,30.18,10.0,ENE,4.6,-,N/A,,Clear,70,2013-02-07 01:35:00
8:55 PM,35.6,26.6,70,30.18,10.0,ENE,4.6,-,N/A,,Clear,60,2013-02-07 01:55:00
9:15 PM,35.6,26.6,70,30.18,10.0,NE,3.5,-,N/A,,Clear,40,2013-02-07 02:15:00
9:35 PM,35.6,26.6,70,30.19,10.0,NE,3.5,-,N/A,,Clear,50,2013-02-07 02:35:00
9:55 PM,33.8,26.6,75,30.20,10.0,NE,3.5,-,N/A,,Clear,50,2013-02-07 02:55:00
10:15 PM,33.8,26.6,75,30.21,10.0,ENE,3.5,-,N/A,,Clear,60,2013-02-07 03:15:00
10:35 PM,32.0,26.6,80,30.22,10.0,NE,3.5,-,N/A,,Clear,50,2013-02-07 03:35:00
11:15 PM,33.8,26.6,75,30.20,10.0,ENE,4.6,-,N/A,,Clear,70,2013-02-07 04:15:00
11:35 PM,33.8,26.6,75,30.20,10.0,NE,4.6,-,N/A,,Clear,50,2013-02-07 04:35:00
11:55 PM,33.8,26.6,75,30.19,10.0,NE,4.6,-,N/A,,Clear,40,2013-02-07 04:55:00